Location: ????????
(55.7667°N, 37.4833°E)
Time: 14:49:05
(UTC+00:00)

COSMOS 2406 - Pass Details

Date: 19 May 2025
Orbit: 845 x 859 km, 71.0° (Epoch: 20 June)

Event Time Altitude Azimuth Distance (km) Brightness Sun altitude
Exits shadow 20:17:09 16° 185° (S) 2,092 4.7 -12.9°
Maximum altitude 20:21:33 51° 114° (ESE) 1,065 3.5 -13.0°
Drops below altitude 10° 20:27:04 10° 40° (NE) 2,493 6.1 -13.2°
Sets 20:29:35 0° 36° (NE) 3,436 7.0 -13.3°
